Norfolk, VA

3:00 AM EDT on August 29, 2016 (GMT -0400)
Norfolk International

Weather History for KORF - September, 2013

Change the Weather History Date:

Sunday, September 29, 2013

  Actual Average Record
Temperature  
Mean Temperature 69 °F 68 °F  
Max Temperature 74 °F 75 °F 93 °F (1973)
Min Temperature 63 °F 61 °F 49 °F (1962)
Degree Days  
Heating Degree Days 0 1  
Month to date heating degree days 8 7  
Since 1 July heating degree days 8 7  
Cooling Degree Days 4 4  
Month to date cooling degree days 213 226  
Year to date cooling degree days 1662 1561  
Growing Degree Days 18 (Base 50)    
Moisture  
Dew Point 59 °F    
Average Humidity 70    
Maximum Humidity 87    
Minimum Humidity 53    
Precipitation  
Precipitation 0.00 in 0.15 in 2.33 in (1946)
Month to date precipitation 0.93 4.63  
Year to date precipitation 34.20 36.57  
Snow  
Snow 0.00 in 0.00 in 0.00 in (2002)
Month to date snowfall 0.0 0.0  
Since 1 July snowfall 0.0 0.0  
Snow Depth 0.00 in    
Sea Level Pressure  
Sea Level Pressure 30.09 in    
Wind  
Wind Speed 11 mph (NNE)    
Max Wind Speed 20 mph    
Max Gust Speed 25 mph    
Visibility 10 miles    
Events      
T = Trace of Precipitation, MM = Missing Value Source: NWS Daily Summary

Daily Weather History Graph

Daily Weather History Graph

Search for Another Location

Airport or City:

Trip Planner

Search our weather history database for the weather conditions in past years. The results will help you decide how hot, cold, wet, or windy it might be!

Date:

Astronomy

Sep. 29, 2013 Rise Set
Actual Time 6:58 AM EDT 6:50 PM EDT
Civil Twilight 6:32 AM EDT 7:16 PM EDT
Nautical Twilight 6:02 AM EDT 7:46 PM EDT
Astronomical Twilight 5:32 AM EDT 8:16 PM EDT
Moon 1:44 AM EDT 3:39 PM EDT
Length of Visible Light 12h 43m
Length of Day
11h 52m
Waning Crescent, 27% of the Moon is Illuminated
Sep 29
Waning Crescent
Oct 4
New
Oct 11
First Quarter
Oct 18
Full
Oct 26
Last Quarter

Hourly Weather History & Observations

Time (EDT) Temp. Dew Point Humidity Pressure Visibility Wind Dir Wind Speed Gust Speed Precip Events Conditions
12:51 AM 64.9 °F 59.0 °F 81% 30.15 in 10.0 mi NE 11.5 mph - N/A   Overcast
1:51 AM 64.9 °F 60.1 °F 84% 30.14 in 10.0 mi NE 12.7 mph - N/A   Overcast
2:51 AM 64.9 °F 60.1 °F 84% 30.12 in 10.0 mi NNE 11.5 mph - N/A   Overcast
3:51 AM 66.0 °F 60.1 °F 81% 30.10 in 10.0 mi NNE 9.2 mph - N/A   Overcast
4:37 AM 66.2 °F 60.8 °F 83% 30.10 in 10.0 mi NNE 12.7 mph - N/A   Overcast
4:51 AM 66.0 °F 60.1 °F 81% 30.10 in 10.0 mi North 9.2 mph - N/A   Overcast
5:33 AM 66.2 °F 60.8 °F 83% 30.10 in 10.0 mi North 9.2 mph - N/A   Overcast
5:40 AM 66.2 °F 60.8 °F 83% 30.10 in 10.0 mi North 10.4 mph - N/A   Overcast
5:51 AM 66.0 °F 61.0 °F 84% 30.10 in 10.0 mi NNE 9.2 mph - N/A   Overcast
6:28 AM 66.2 °F 60.8 °F 83% 30.10 in 10.0 mi NNE 11.5 mph - N/A   Mostly Cloudy
6:51 AM 66.0 °F 61.0 °F 84% 30.11 in 10.0 mi NNE 10.4 mph - N/A   Mostly Cloudy
7:05 AM 66.2 °F 60.8 °F 83% 30.11 in 10.0 mi North 9.2 mph - N/A   Overcast
7:39 AM 66.2 °F 60.8 °F 83% 30.11 in 10.0 mi North 9.2 mph - N/A   Overcast
7:51 AM 66.0 °F 61.0 °F 84% 30.11 in 10.0 mi North 9.2 mph - N/A   Overcast
8:04 AM 66.2 °F 60.8 °F 83% 30.10 in 10.0 mi North 11.5 mph - N/A   Mostly Cloudy
8:51 AM 66.9 °F 62.1 °F 84% 30.11 in 10.0 mi NNE 10.4 mph - N/A   Overcast
9:51 AM 68.0 °F 62.1 °F 81% 30.11 in 10.0 mi NNE 13.8 mph - N/A   Overcast
10:40 AM 69.8 °F 62.6 °F 78% 30.10 in 10.0 mi NNE 15.0 mph - N/A   Overcast
10:51 AM 70.0 °F 62.1 °F 76% 30.10 in 10.0 mi NNE 16.1 mph - N/A   Overcast
11:04 AM 69.8 °F 62.6 °F 78% 30.11 in 10.0 mi NE 13.8 mph - N/A   Overcast
11:30 AM 71.6 °F 62.6 °F 73% 30.10 in 10.0 mi NNE 15.0 mph - N/A   Overcast
11:51 AM 73.0 °F 62.1 °F 68% 30.09 in 10.0 mi NE 12.7 mph - N/A   Mostly Cloudy
12:51 PM 73.0 °F 57.9 °F 59% 30.09 in 10.0 mi ENE 15.0 mph 21.9 mph N/A   Partly Cloudy
1:51 PM 71.1 °F 55.9 °F 59% 30.08 in 10.0 mi NE 13.8 mph - N/A   Overcast
2:51 PM 73.0 °F 55.9 °F 55% 30.07 in 10.0 mi ENE 12.7 mph - N/A   Clear
3:51 PM 71.1 °F 55.0 °F 57% 30.06 in 10.0 mi ENE 13.8 mph - N/A   Clear
4:51 PM 70.0 °F 55.9 °F 61% 30.05 in 10.0 mi NE 15.0 mph 20.7 mph N/A   Clear
5:51 PM 68.0 °F 55.0 °F 63% 30.05 in 10.0 mi ENE 11.5 mph 19.6 mph N/A   Clear
6:51 PM 64.9 °F 54.0 °F 68% 30.05 in 10.0 mi ENE 10.4 mph - N/A   Clear
7:51 PM 64.9 °F 54.0 °F 68% 30.06 in 10.0 mi NE 10.4 mph 17.3 mph N/A   Clear
8:51 PM 64.0 °F 55.0 °F 73% 30.06 in 10.0 mi NE 10.4 mph - N/A   Clear
9:51 PM 64.0 °F 54.0 °F 70% 30.06 in 10.0 mi NE 9.2 mph - N/A   Clear
10:51 PM 64.0 °F 54.0 °F 70% 30.04 in 10.0 mi NNE 10.4 mph - N/A   Clear
11:51 PM 64.0 °F 55.0 °F 73% 30.03 in 10.0 mi North 8.1 mph - N/A   Clear